Flag for Germany Weather past 2 weeks in Schleswig, Schleswig-Holstein, Germany

Now
62 °F

Scattered clouds.


Feels Like: 62 °F
Forecast: 47 / 67 °F
Wind: 7 mph from West

Location: Schleswig

Current Time: Jul 31, 2015 at 2:11:08 PM

Latest Report: Jul 31, 2015 at 1:00 PM


Visibility: 25 mi

Pressure: 30.05 "Hg

Humidity: 61%

Dew point: 48 °F

Location of SchleswigLocation

Historic Weather in Schleswig — Graph

°F

Schleswig temperature yesterday

Maximum temperature yesterday: 57 °F (at 4:00 PM)
Minimum temperature yesterday: 53 °F (at 10:00 PM)
Average temperature yesterday: 55 °F

Past Weeks' High & Low Weather Summary

 TemperatureHumidityPressure
High76 °F (Jul 22, 3:00 PM)100% (Jul 21, 8:00 AM)30.13 "Hg (Jul 21, 8:00 AM)
Low49 °F (Jul 17, 4:00 AM)49% (Jul 16, 4:00 PM)29.38 "Hg (Jul 28, 3:00 AM)
Average60 °F82%29.78 "Hg
* Reported Jul 16 1:00 PM — Jul 31 1:00 PM, Schleswig, Weather by CustomWeather, © 2015

Note: Actual official high and low records may vary slightly from our data, if they occured in-between our weather recording intervals... More about our weather records

Advertising

Schleswig weather history for previous 24 hours

 ConditionsComfort  
Time TempWeatherWind HumidityBarometerVisibility
1:00 PM
Fri, Jul 31
62 °FScattered clouds.7 mph61%30.05 "Hg25 mi
12:00 PM61 °FPartly sunny.8 mph53%30.04 "Hg25 mi
10:00 AM58 °FPartly sunny.6 mph68%30.02 "Hg19 mi
9:00 AM55 °FOvercast.3 mph80%30.01 "Hg19 mi
8:00 AM54 °FOvercast.5 mph77%30.00 "Hg19 mi
7:00 AM52 °FOvercast.3 mph82%29.98 "Hg19 mi
4:00 AM52 °FOvercast.5 mph88%29.95 "Hg12 mi
3:00 AM52 °FOvercast.6 mph88%29.94 "Hg16 mi
2:00 AM52 °FOvercast.6 mph90%29.94 "Hg14 mi
1:00 AM52 °FOvercast.6 mph95%29.93 "Hg12 mi
10:00 PM
Thu, Jul 30
53 °FOvercast.6 mph97%29.89 "Hg12 mi
9:00 PM54 °FLow clouds.7 mph97%29.87 "Hg5 mi
8:00 PM54 °FLight rain. Overcast.8 mph95%29.85 "Hg6 mi
7:00 PM56 °FLight rain. Overcast.8 mph90%29.83 "Hg11 mi
6:00 PM57 °FLight rain. Overcast.9 mph91%29.81 "Hg12 mi
4:00 PM57 °FLight rain. Low clouds.8 mph97%29.78 "Hg11 mi
3:00 PM57 °FRain. Overcast.8 mph98%29.76 "Hg4 mi
2:00 PM56 °FLight rain. Low clouds.7 mph97%29.75 "Hg4 mi
Weather by CustomWeather, © 2015

See weather overviewHow to use our weather pages